Regional Weather Roundup
Issued by NWS Little Rock, AR

Home | Current Version | Previous Version | Text Only | Print | Product List | Glossary On
Versions: 1 2 3 4 5 6 7 8 9 10 11 12 13 14 15 16 17 18 19 20 21 22 23 24 25 26 27 28
000
ASUS44 KLZK 290405
RWRLZK

WEATHER ROUNDUP FOR ARKANSAS
NATIONAL WEATHER SERVICE LITTLE ROCK AR
1100 PM CDT SAT MAY 28 2016

NOTE: "FAIR" INDICATES FEW OR NO CLOUDS BELOW 12,000 FEET WITH NO
SIGNIFICANT WEATHER AND/OR OBSTRUCTIONS TO VISIBILITY.

ARZ001-003-010-029-290500-
NORTHWEST ARKANSAS

CITY           SKY/WX    TMP DP  RH WIND       PRES   REMARKS
FAYETTEVILLE   CLEAR     65  65 100 SE3       30.05R
FORT SMITH     CLEAR     74  65  73 SE5       30.02R
HARRISON       MOCLDY    69  65  86 S5        30.06R
BENTONVILLE    CLEAR     68  63  83 CALM      30.05S
ROGERS           N/A     67  64  90 CALM      30.06R
SILOAM SPGS    CLEAR     66  57  72 CALM      30.05S
HIGHFILL       PTCLDY    66  64  93 CALM      30.05R
$$

ARZ004-005-016-290500-
NORTH CENTRAL ARKANSAS

CITY           SKY/WX    TMP DP  RH WIND       PRES   REMARKS
BATESVILLE     PTCLDY    72  64  78 SW5       30.04R
FLIPPIN        CLEAR    N/A N/A N/A SW6       30.01R
MTN HOME       CLEAR     72  66  81 SW5       30.03R
$$

ARZ040-041-290500-
WEST CENTRAL ARKANSAS

CITY           SKY/WX    TMP DP  RH WIND       PRES   REMARKS
MENA           PTCLDY    68  68 100 CALM      30.07R
MOUNT IDA      CLEAR     66  64  93 CALM      30.03R FOG
$$

ARZ009-017-025-026-028-290500-
NORTHEAST ARKANSAS

CITY           SKY/WX    TMP DP  RH WIND       PRES   REMARKS
CORNING          N/A     73  73 100 S8        30.03S
JONESBORO      CLEAR     73  68  84 SE5       30.02S
NEWPORT        CLEAR     73  71  93 S5        30.04R
WALNUT RIDGE   CLEAR     72  66  83 SW5       30.03R
BLYTHEVILLE    CLEAR     74  69  85 S6        30.04R
$$

ARZ022-023-033-042-044-290500-
CENTRAL ARKANSAS

CITY           SKY/WX    TMP DP  RH WIND       PRES   REMARKS
LITTLE ROCK    CLEAR     72  66  81 CALM      30.04R
N LITTLE ROCK    N/A     72  67  84 CALM      30.02R
SEARCY         CLEAR     69  68  96 CALM      30.05R
HOT SPRINGS    CLEAR     70  66  87 CALM      30.04S
RUSSELLVILLE   CLEAR     69  67  93 SE5       30.03R
CLINTON        FAIR      66  66 100 CALM      30.05R
$$

ARZ036-290500-
EAST ARKANSAS

CITY           SKY/WX    TMP DP  RH WIND       PRES   REMARKS
WEST MEMPHIS   CLEAR     72  70  93 CALM      30.03S
$$

ARZ050-053-066-070-073-290500-
SOUTHWEST ARKANSAS

CITY           SKY/WX    TMP DP  RH WIND       PRES   REMARKS
ARKADELPHIA    FAIR      68  68 100 CALM      30.04R FOG
CAMDEN         PTCLDY    68  64  88 CALM      30.03R FOG
TEXARKANA      CLEAR     70  68  93 CALM      30.04R
EL DORADO      CLEAR     71  69  93 CALM      30.04R
DE QUEEN       CLEAR     68  68 100 CALM      30.03R FOG
$$

ARZ056-057-069-290500-
SOUTHEAST ARKANSAS

CITY           SKY/WX    TMP DP  RH WIND       PRES   REMARKS
PINE BLUFF     CLEAR     71  68  90 S5        30.04R
STUTTGART      CLEAR     75  68  78 S6        30.04S
MONTICELLO     CLEAR     73  70  90 CALM      30.05R

$$






USA.gov is the U.S. government's official web portal to all federal, state and local government web resources and services.